Location: Kouchibouguac National Park
(46.8081°N, 64.9088°W)
Time: 05:58:39
(UTC-04:00)

Amateur Radio Satellites - All Passes

Search period start: 11 December 2016 05:28
Search period end: 12 December 2016 05:28
Location: Kouchibouguac National Park, 46.8081°N, 64.9088°W

Satellite Date Start Highest point End Downlink Frequencies (MHz)
Time Altitude Azimuth
DOVE 4 11 Dec 05:29:16 05:32:08 15° 86° (E) 05:34:56 437.250
Cosmos 2491 11 Dec 05:33:55 05:41:16 31° 82° (E) 05:48:35 435.465 / 435.565
AIST 1 11 Dec 05:39:13 05:43:07 29° 72° (ENE) 05:46:58
GOMX 1 11 Dec 05:45:42 05:51:00 45° 97° (E) 05:56:12 467.674
NOAA 18 11 Dec 05:54:01 05:57:34 17° 89° (E) 06:01:06 137.9125
LilacSat-2 11 Dec 06:00:17 06:03:33 27° 95° (E) 06:06:49 437.200
CUBESAT XI-V 11 Dec 06:00:55 06:02:45 12° 273° (W) 06:04:35 437.345
RS-15 11 Dec 06:04:22 06:15:03 43° 108° (ESE) 06:26:07 29.354- 29.394
BEESAT 2 11 Dec 06:06:11 06:09:27 24° 321° (NW) 06:12:45 435.950
AIST 2 11 Dec 06:08:15 06:10:48 16° 111° (ESE) 06:13:21 435.215
Cosmos 2504 11 Dec 06:25:15 06:34:03 69° 78° (ENE) 06:42:15 435.465 / 435.565
HORYU 2 11 Dec 06:31:03 06:35:17 45° 290° (WNW) 06:39:29 437.375
CUTE-I 11 Dec 06:36:02 06:41:20 60° 101° (ESE) 06:46:34 437.470
BRITE-PL 11 Dec 06:39:00 06:43:58 35° 293° (WNW) 06:49:04 437.365/2234.400
NOAA 15 11 Dec 06:40:14 06:45:32 71° 103° (ESE) 06:50:49 137.62
YUBILEINY 11 Dec 06:55:59 07:04:19 48° 272° (W) 07:12:38 435.215
STRAND 1 11 Dec 06:58:44 07:03:50 70° 257° (WSW) 07:08:59 437.568
Cubesat XI-IV 11 Dec 07:03:53 07:09:14 82° 289° (WNW) 07:14:34 437.490
DOVE 4 11 Dec 07:05:11 07:10:31 82° 285° (WNW) 07:15:36 437.250
AO-7 11 Dec 07:16:35 07:20:58 16° 322° (NW) 07:25:21 29.400- 29.500
AIST 1 11 Dec 07:16:51 07:20:39 29° 271° (W) 07:24:25
GOMX 1 11 Dec 07:24:06 07:28:51 31° 295° (WNW) 07:33:34 467.674
CUBEBUG 2 11 Dec 07:24:42 07:25:17 10° 86° (E) 07:25:53 437.445
Cosmos 2491 11 Dec 07:28:48 07:37:30 65° 284° (WNW) 07:46:13 435.465 / 435.565
HO-68 11 Dec 07:29:31 07:36:07 37° 96° (E) 07:42:38 435.675
NOAA 18 11 Dec 07:33:17 07:38:50 76° 288° (WNW) 07:44:20 137.9125
LilacSat-2 11 Dec 07:34:41 07:37:47 24° 293° (WNW) 07:40:51 437.200
CINEMA 3 11 Dec 07:42:17 07:47:01 64° 100° (E) 07:51:30 145.822/145.860
AIST 2 11 Dec 07:44:43 07:48:48 63° 310° (NW) 07:52:58 435.215
AAUSAT CUBESAT 2 11 Dec 07:44:45 07:47:11 15° 90° (E) 07:49:36 437.432
CUTE 1.7 + AOD 2 11 Dec 07:47:54 07:51:56 43° 98° (E) 07:55:58 437.475
AO-85 11 Dec 07:48:48 07:51:30 17° 33° (NNE) 07:54:08 145.980
PRISM 11 Dec 07:51:34 07:55:08 30° 67° (ENE) 07:58:44 437.425
UWE-3 11 Dec 07:53:35 07:55:45 14° 89° (E) 07:57:53 435.000/436.395/437.385
CANX-2 11 Dec 08:07:02 08:11:17 80° 103° (ESE) 08:15:31 2200.000
RS-15 11 Dec 08:15:00 08:26:54 71° 313° (NW) 08:39:20 29.354- 29.394
CUTE-I 11 Dec 08:16:53 08:20:57 23° 300° (WNW) 08:25:00 437.470
Cosmos 2504 11 Dec 08:19:33 08:26:40 29° 280° (W) 08:33:27 435.465 / 435.565
COMPASS 1 11 Dec 08:19:45 08:23:45 44° 98° (E) 08:27:45 437.405
SEEDS 11 Dec 08:20:20 08:24:31 66° 101° (E) 08:28:42 437.485
NOAA 15 11 Dec 08:21:05 08:24:47 20° 302° (WNW) 08:28:29 137.62
ZACube-1 11 Dec 08:21:08 08:23:48 16° 90° (E) 08:26:26 437.345
FUNcube-1 11 Dec 08:25:23 08:28:06 17° 90° (E) 08:30:47 145.935
CUSAT 1 11 Dec 08:26:26 08:28:24 18° 94° (E) 08:30:18 437.405
UNISAT 6 11 Dec 08:33:36 08:37:15 23° 64° (ENE) 08:40:51 437.425
DOVE 4 11 Dec 08:44:37 08:47:19 14° 304° (NW) 08:49:59 437.250
Cubesat XI-IV 11 Dec 08:45:42 08:48:31 15° 305° (NW) 08:51:18 437.490
Oscar 11 11 Dec 08:47:46 08:51:29 28° 95° (E) 08:55:11 145.826/435.025
CUBEBUG 2 11 Dec 08:58:12 09:02:35 83° 285° (WNW) 09:06:48 437.445
TIGRISAT 11 Dec 09:00:57 09:05:14 38° 69° (ENE) 09:09:28 435.000
ANTELSAT 11 Dec 09:03:52 09:08:15 42° 70° (ENE) 09:12:34 437.575/2403.000
Cosmos 2499 11 Dec 09:08:46 09:13:27 15° 50° (NE) 09:17:58 435.465 / 435.565
NOAA 18 11 Dec 09:15:47 09:18:36 14° 307° (NW) 09:21:23 137.9125
HO-68 11 Dec 09:17:07 09:24:02 51° 296° (WNW) 09:30:55 435.675
AAUSAT CUBESAT 2 11 Dec 09:18:55 09:23:00 55° 287° (WNW) 09:27:03 437.432
CINEMA 3 11 Dec 09:20:29 09:23:37 18° 300° (WNW) 09:26:39 145.822/145.860
CUTE 1.7 + AOD 2 11 Dec 09:24:22 09:27:31 21° 296° (WNW) 09:30:39 437.475
AIST 2 11 Dec 09:25:52 09:28:07 14° 331° (NNW) 09:30:23 435.215
DELFI C3 11 Dec 09:26:54 09:30:17 26° 95° (E) 09:33:40 145.870
PRISM 11 Dec 09:26:57 09:30:25 27° 265° (W) 09:33:56 437.425
UWE-3 11 Dec 09:28:26 09:32:40 61° 287° (WNW) 09:36:46 435.000/436.395/437.385
AO-85 11 Dec 09:28:28 09:32:29 84° 237° (WSW) 09:36:22 145.980
Cosmos 2491 11 Dec 09:31:25 09:36:24 16° 308° (NW) 09:41:25 435.465 / 435.565
NANOSAT C BR1 11 Dec 09:34:25 09:35:28 11° 57° (ENE) 09:36:31 145.865
GONETS M04 11 Dec 09:38:05 09:44:26 21° 57° (ENE) 09:50:45
QB50P2 11 Dec 09:44:23 09:46:55 16° 61° (ENE) 09:49:28 145.880/145.840
CANX-2 11 Dec 09:44:47 09:46:32 12° 301° (WNW) 09:48:17 2200.000
POLYITAN 1 11 Dec 09:44:53 09:47:18 15° 60° (ENE) 09:49:43 437.675
JAS-2 11 Dec 09:45:13 09:50:20 31° 65° (ENE) 09:55:04 435.910
DUCHIFAT 1 11 Dec 09:51:59 09:54:23 15° 60° (ENE) 09:56:48 145.980
QB50P1 11 Dec 09:55:21 09:58:17 18° 62° (ENE) 10:01:14 145.935-145.965
COMPASS 1 11 Dec 09:55:59 09:59:01 20° 296° (WNW) 10:02:03 437.405
ZACube-1 11 Dec 09:56:20 10:00:25 50° 288° (WNW) 10:04:25 437.345
SEEDS 11 Dec 09:57:27 09:59:43 14° 299° (WNW) 10:02:00 437.485
FUNcube-1 11 Dec 10:00:36 10:04:40 48° 288° (WNW) 10:08:39 145.935
DANDE 11 Dec 10:08:00 10:11:46 74° 281° (W) 10:14:46 436.750
CUSAT 1 11 Dec 10:09:09 10:10:17 12° 291° (WNW) 10:11:26 437.405
UNISAT 6 11 Dec 10:09:14 10:13:42 45° 261° (W) 10:18:08 437.425
PCSat 11 Dec 10:11:22 10:16:22 40° 114° (ESE) 10:21:26 145.827
POPSAT HIP 1 11 Dec 10:16:36 10:20:16 28° 66° (ENE) 10:23:56 437.405
Oscar 11 11 Dec 10:23:48 10:27:36 31° 293° (WNW) 10:31:25 145.826/435.025
BEESAT 3 11 Dec 10:24:16 10:26:13 13° 30° (NNE) 10:28:09 437.485
BUGSAT 1 11 Dec 10:25:13 10:27:19 14° 59° (ENE) 10:29:26 437.445
RS-15 11 Dec 10:31:06 10:42:04 36° 344° (NNW) 10:53:15 29.354- 29.394
HUMSAT D 11 Dec 10:32:11 10:36:17 71° 102° (ESE) 10:40:20 437.325/437.525
CUBEBUG 2 11 Dec 10:37:31 10:38:25 11° 304° (WNW) 10:39:18 437.445
TIGRISAT 11 Dec 10:38:04 10:41:59 26° 266° (W) 10:45:53 435.000
ANTELSAT 11 Dec 10:41:21 10:45:05 24° 267° (W) 10:48:48 437.575/2403.000
Cosmos 2499 11 Dec 11:00:13 11:08:44 63° 76° (ENE) 11:16:33 435.465 / 435.565
DELFI C3 11 Dec 11:01:37 11:05:05 29° 292° (WNW) 11:08:34 145.870
BEESAT 2 11 Dec 11:05:50 11:08:14 15° 32° (NNE) 11:10:37 435.950
NANOSAT C BR1 11 Dec 11:06:12 11:10:29 85° 73° (ENE) 11:14:46 145.865
HO-68 11 Dec 11:07:11 11:10:08 13° 317° (NW) 11:13:06 435.675
QB50P2 11 Dec 11:18:00 11:22:14 64° 258° (WSW) 11:26:31 145.880/145.840
POLYITAN 1 11 Dec 11:18:19 11:22:35 67° 257° (WSW) 11:26:53 437.675
DUCHIFAT 1 11 Dec 11:25:21 11:29:35 66° 258° (WSW) 11:33:50 145.980
AISAT 11 Dec 11:27:20 11:30:30 19° 92° (E) 11:33:38 437.250
QB50P1 11 Dec 11:29:31 11:33:41 51° 260° (W) 11:37:54 145.935-145.965
JAS-2 11 Dec 11:29:32 11:35:20 44° 261° (W) 11:40:37 435.910
GONETS M04 11 Dec 11:33:55 11:42:42 85° 81° (E) 11:51:29
CUBEBUG 1 11 Dec 11:36:58 11:40:57 32° 96° (E) 11:44:55 437.445
Oscar 19 11 Dec 11:43:42 11:47:50 25° 62° (ENE) 11:52:00 437.125/150
ESTCUBE 1 11 Dec 11:45:04 11:49:34 61° 101° (E) 11:54:02 437.505/2401.250
POPSAT HIP 1 11 Dec 11:52:09 11:55:58 31° 264° (W) 11:59:49 437.405
SPROUT 11 Dec 11:52:31 11:55:48 21° 93° (E) 11:59:04 437.525
50 SAT 11 Dec 11:52:35 11:55:27 22° 95° (E) 11:58:20 437.505
UKube-1 11 Dec 11:53:30 11:55:27 13° 89° (E) 11:57:22 .
PCSat 11 Dec 11:54:46 11:59:49 39° 313° (NW) 12:04:54 145.827
DX 1 11 Dec 11:57:15 12:00:23 19° 92° (E) 12:03:29 434.975-435.025
BUGSAT 1 11 Dec 11:57:52 12:02:07 75° 258° (WSW) 12:06:24 437.445
BEESAT 3 11 Dec 12:00:40 12:04:39 62° 51° (NE) 12:08:35 437.485
VELOX 1 11 Dec 12:03:04 12:07:17 39° 98° (E) 12:11:27 145.980
HUMSAT D 11 Dec 12:09:30 12:11:21 13° 300° (WNW) 12:13:12 437.325/437.525
Gurwin Techsat 1B 11 Dec 12:26:46 12:31:25 32° 64° (ENE) 12:36:06 435.225
AO-7 11 Dec 12:42:09 12:47:54 21° 44° (NE) 12:53:40 29.400- 29.500
BEESAT 2 11 Dec 12:42:39 12:46:42 76° 54° (NE) 12:50:44 435.950
NANOSAT C BR1 11 Dec 12:46:15 12:46:47 10° 273° (W) 12:47:19 145.865
RS-15 11 Dec 12:47:42 12:58:56 37° 18° (NNE) 13:10:05 29.354- 29.394
TISAT 1 11 Dec 12:53:35 12:56:12 16° 91° (E) 12:58:47 437.305
Cosmos 2499 11 Dec 12:54:07 13:01:15 31° 278° (W) 13:07:57 435.465 / 435.565
AISAT 11 Dec 13:02:54 13:07:15 51° 289° (WNW) 13:11:34 437.250
CUBEBUG 1 11 Dec 13:13:19 13:17:10 29° 294° (WNW) 13:21:00 437.445
Oscar 19 11 Dec 13:21:53 13:26:51 50° 260° (W) 13:31:54 437.125/150
ESTCUBE 1 11 Dec 13:22:57 13:25:55 18° 299° (WNW) 13:28:53 437.505/2401.250
50 SAT 11 Dec 13:25:41 13:28:44 26° 292° (WNW) 13:31:46 437.505
UKube-1 11 Dec 13:27:38 13:31:58 71° 287° (WNW) 13:36:17 .
SPROUT 11 Dec 13:27:52 13:31:54 40° 291° (WNW) 13:35:54 437.525
GONETS M04 11 Dec 13:32:09 13:38:25 23° 283° (WNW) 13:44:44
DX 1 11 Dec 13:32:35 13:36:50 48° 290° (WNW) 13:41:03 434.975-435.025
BEESAT 3 11 Dec 13:39:27 13:41:49 15° 248° (WSW) 13:44:11 437.485
VELOX 1 11 Dec 13:39:54 13:43:33 25° 296° (WNW) 13:47:11 145.980
PCSat 11 Dec 13:42:32 13:44:49 12° 337° (NNW) 13:47:05 145.827
SWISSCUBE 11 Dec 14:02:28 14:05:59 20° 92° (E) 14:09:29 437.505
ITAMSAT 1 11 Dec 14:03:14 14:08:18 53° 69° (ENE) 14:13:22 435.822/435.867
BEESAT 11 Dec 14:05:53 14:09:21 20° 92° (E) 14:12:48 436.000
Gurwin Techsat 1B 11 Dec 14:06:17 14:11:15 40° 262° (W) 14:16:17 435.225
O/OREOS (USA 219) 11 Dec 14:11:46 14:14:47 18° 101° (E) 14:17:49 437.305
BEESAT 2 11 Dec 14:22:09 14:23:55 13° 250° (WSW) 14:25:41 435.950
AIST 2 11 Dec 14:25:10 14:28:57 31° 43° (NE) 14:32:44 435.215
AUBIESAT-1 11 Dec 14:26:28 14:29:32 18° 95° (E) 14:32:28 437.475
TISAT 1 11 Dec 14:28:02 14:32:10 53° 288° (WNW) 14:36:14 437.305
AO-7 11 Dec 14:31:05 14:39:20 73° 67° (ENE) 14:47:40 29.400- 29.500
ITUPSAT 1 11 Dec 14:37:00 14:41:26 37° 97° (E) 14:45:50 437.325
M-CUBED/EXP-1 PRIME 11 Dec 14:43:14 14:47:23 31° 100° (E) 14:51:20 437.505
RS-15 11 Dec 15:01:27 15:13:56 74° 48° (NE) 15:26:02 29.354- 29.394
ISS 11 Dec 15:04:00 15:07:14 59° 148° (SSE) 15:10:30 145.825
SWISSCUBE 11 Dec 15:39:28 15:44:05 51° 290° (WNW) 15:48:40 437.505
Cosmos 2491 11 Dec 15:39:49 15:45:37 19° 55° (NE) 15:51:22 435.465 / 435.565
KKS-1 11 Dec 15:41:16 15:44:27 19° 92° (E) 15:47:36 437.445
BEESAT 11 Dec 15:42:49 15:47:28 53° 289° (WNW) 15:52:04 436.000
ITAMSAT 1 11 Dec 15:44:01 15:48:05 23° 267° (W) 15:52:09 435.822/435.867
O/OREOS (USA 219) 11 Dec 15:49:18 15:53:46 56° 298° (WNW) 15:58:15 437.305
MOZHAYETS 4 11 Dec 15:54:34 15:59:06 60° 101° (E) 16:03:36
HORYU 2 11 Dec 15:55:39 15:59:28 28° 65° (ENE) 16:03:18 437.375
AUBIESAT-1 11 Dec 15:59:48 16:04:17 57° 294° (WNW) 16:08:32 437.475
AIST 2 11 Dec 16:03:34 16:07:30 38° 242° (WSW) 16:11:25 435.215
BRITE-PL 11 Dec 16:14:21 16:18:43 52° 71° (ENE) 16:23:28 437.365/2234.400
CUBESAT XI-V 11 Dec 16:14:46 16:17:46 17° 90° (E) 16:20:45 437.345
ITUPSAT 1 11 Dec 16:15:04 16:19:09 29° 295° (WNW) 16:23:13 437.325
M-CUBED/EXP-1 PRIME 11 Dec 16:17:37 16:21:49 34° 299° (WNW) 16:25:49 437.505
CUTE-I 11 Dec 16:22:40 16:26:37 21° 59° (ENE) 16:30:34 437.470
NOAA 15 11 Dec 16:25:08 16:29:13 24° 60° (ENE) 16:33:19 137.62
AO-7 11 Dec 16:25:56 16:32:49 28° 267° (W) 16:39:48 29.400- 29.500
DOVE 4 11 Dec 16:36:52 16:40:34 21° 60° (ENE) 16:44:22 437.250
ISS 11 Dec 16:40:43 16:43:52 41° 348° (NNW) 16:47:02 145.825
LilacSat-2 11 Dec 16:45:10 16:48:10 22° 66° (ENE) 16:51:10 437.200
Cubesat XI-IV 11 Dec 16:49:37 16:54:23 33° 64° (ENE) 16:59:09 437.490
GOMX 1 11 Dec 16:56:20 17:01:03 59° 72° (ENE) 17:06:09 467.674
STARS 11 Dec 17:05:32 17:09:56 62° 102° (ESE) 17:14:16 437.465
CINEMA 3 11 Dec 17:12:08 17:14:21 13° 57° (ENE) 17:16:34 145.822/145.860
PCSat 11 Dec 17:13:23 17:16:50 17° 31° (NNE) 17:20:18 145.827
RS-15 11 Dec 17:14:42 17:25:37 40° 253° (WSW) 17:36:16 29.354- 29.394
KKS-1 11 Dec 17:16:56 17:21:18 50° 289° (WNW) 17:25:36 437.445
Cosmos 2504 11 Dec 17:20:53 17:22:48 11° 67° (ENE) 17:24:43 435.465 / 435.565
NOAA 18 11 Dec 17:22:27 17:27:39 43° 66° (ENE) 17:32:53 137.9125
HORYU 2 11 Dec 17:31:51 17:35:55 34° 263° (W) 17:40:01 437.375
MOZHAYETS 4 11 Dec 17:32:47 17:35:49 18° 299° (WNW) 17:38:52
O/OREOS (USA 219) 11 Dec 17:34:06 17:34:13 10° 320° (NW) 17:34:21 437.305
Cosmos 2491 11 Dec 17:35:25 17:44:11 76° 79° (E) 17:52:54 435.465 / 435.565
CUBESAT XI-V 11 Dec 17:50:55 17:55:32 61° 287° (WNW) 18:00:09 437.345
BRITE-PL 11 Dec 17:54:24 17:57:38 19° 271° (W) 18:01:03 437.365/2234.400
CUTE-I 11 Dec 18:00:51 18:06:11 66° 258° (WSW) 18:11:32 437.470
HO-68 11 Dec 18:01:17 18:07:44 38° 60° (ENE) 18:14:13 435.675
SO-50 11 Dec 18:02:42 18:06:06 20° 112° (ESE) 18:09:28 436.795
NOAA 15 11 Dec 18:03:29 18:08:37 56° 259° (W) 18:13:48 137.62
YUBILEINY 11 Dec 18:03:49 18:11:53 44° 87° (E) 18:20:00 435.215
DOVE 4 11 Dec 18:12:47 18:17:43 64° 259° (W) 18:22:56 437.250
AIST 1 11 Dec 18:12:58 18:15:26 15° 84° (E) 18:17:55
ISS 11 Dec 18:17:44 18:20:50 36° 8° (N) 18:23:56 145.825
LilacSat-2 11 Dec 18:18:51 18:22:18 32° 263° (W) 18:25:46 437.200
CUBEBUG 2 11 Dec 18:24:05 18:26:52 16° 60° (ENE) 18:29:38 437.445
Cubesat XI-IV 11 Dec 18:29:23 18:34:22 39° 263° (W) 18:39:24 437.490
GOMX 1 11 Dec 18:36:12 18:39:37 19° 272° (W) 18:43:13 467.674
AAUSAT CUBESAT 2 11 Dec 18:38:03 18:40:28 15° 62° (ENE) 18:42:53 437.432
STARS 11 Dec 18:43:00 18:45:48 17° 300° (WNW) 18:48:35 437.465
CUTE 1.7 + AOD 2 11 Dec 18:43:06 18:47:05 43° 71° (ENE) 18:51:04 437.475
CINEMA 3 11 Dec 18:45:39 18:50:39 79° 76° (ENE) 18:55:42 145.822/145.860
CUSAT 1 11 Dec 18:51:56 18:55:26 27° 74° (ENE) 18:59:45 437.405
UWE-3 11 Dec 18:52:45 18:55:57 19° 63° (ENE) 18:59:06 435.000/436.395/437.385
PCSat 11 Dec 18:55:58 19:01:22 62° 53° (NE) 19:06:44 145.827
CANX-2 11 Dec 19:02:12 19:06:24 80° 76° (ENE) 19:10:38 2200.000
NOAA 18 11 Dec 19:03:33 19:08:26 31° 264° (W) 19:13:21 137.9125
Cosmos 2504 11 Dec 19:05:46 19:14:00 54° 89° (E) 19:22:34 435.465 / 435.565
STRAND 1 11 Dec 19:06:30 19:11:03 32° 96° (E) 19:15:34 437.568
COMPASS 1 11 Dec 19:13:00 19:16:52 42° 71° (ENE) 19:20:47 437.405
SEEDS 11 Dec 19:14:27 19:18:33 64° 74° (ENE) 19:22:42 437.485
ZACube-1 11 Dec 19:19:20 19:22:41 21° 64° (ENE) 19:25:59 437.345
FUNcube-1 11 Dec 19:23:19 19:26:39 21° 64° (ENE) 19:29:58 145.935
Cosmos 2491 11 Dec 19:33:22 19:40:07 26° 281° (W) 19:46:54 435.465 / 435.565
SO-50 11 Dec 19:41:25 19:46:09 65° 310° (NW) 19:50:49 436.795
Oscar 11 11 Dec 19:45:09 19:48:56 31° 68° (ENE) 19:52:45 145.826/435.025
AIST 1 11 Dec 19:48:15 19:52:31 56° 282° (WNW) 19:56:51
HO-68 11 Dec 19:48:20 19:55:16 51° 260° (W) 20:02:17 435.675
ISS 11 Dec 19:54:15 19:57:35 84° 203° (SSW) 20:00:53 145.825
CUBEBUG 2 11 Dec 19:58:13 20:02:57 74° 258° (WSW) 20:07:37 437.445
YUBILEINY 11 Dec 20:00:18 20:08:38 47° 289° (WNW) 20:17:03 435.215
AAUSAT CUBESAT 2 11 Dec 20:11:27 20:15:30 58° 260° (W) 20:19:34 437.432
DELFI C3 11 Dec 20:15:29 20:18:35 23° 66° (ENE) 20:21:42 145.870
CUTE 1.7 + AOD 2 11 Dec 20:20:06 20:23:08 19° 268° (W) 20:26:10 437.475
CINEMA 3 11 Dec 20:25:36 20:28:21 15° 273° (W) 20:31:07 145.822/145.860
UWE-3 11 Dec 20:27:29 20:32:01 57° 260° (W) 20:36:30 435.000/436.395/437.385
CUSAT 1 11 Dec 20:33:34 20:37:17 32° 264° (W) 20:41:59 437.405
PCSat 11 Dec 20:40:08 20:44:19 23° 252° (WSW) 20:48:30 145.827
DANDE 11 Dec 20:40:12 20:43:15 86° 76° (ENE) 20:47:09 436.750
CANX-2 11 Dec 20:42:03 20:42:49 10° 273° (W) 20:43:37 2200.000
STRAND 1 11 Dec 20:45:36 20:50:16 37° 294° (WNW) 20:54:55 437.568
COMPASS 1 11 Dec 20:49:39 20:52:37 19° 268° (W) 20:55:37 437.405
SEEDS 11 Dec 20:52:47 20:54:42 13° 271° (W) 20:56:37 437.485
ZACube-1 11 Dec 20:54:19 20:58:40 47° 261° (W) 21:02:58 437.345
FUNcube-1 11 Dec 20:58:18 21:02:37 46° 261° (W) 21:06:52 145.935
Cosmos 2504 11 Dec 20:59:40 21:07:40 41° 292° (WNW) 21:15:59 435.465 / 435.565
PRISM 11 Dec 21:04:46 21:08:31 32° 97° (E) 21:12:16 437.425
ESTCUBE 1 11 Dec 21:14:28 21:15:32 11° 56° (NE) 21:16:36 437.505/2401.250
Oscar 11 11 Dec 21:21:21 21:25:04 28° 265° (W) 21:28:48 145.826/435.025
SO-50 11 Dec 21:24:30 21:27:30 16° 331° (NNW) 21:30:29 436.795
HUMSAT D 11 Dec 21:25:43 21:29:52 71° 74° (ENE) 21:34:00 437.325/437.525
ISS 11 Dec 21:31:39 21:33:39 15° 225° (SW) 21:35:38 145.825
DELFI C3 11 Dec 21:49:42 21:53:15 33° 263° (W) 21:56:50 145.870
UNISAT 6 11 Dec 21:58:12 22:02:02 29° 95° (E) 22:05:47 437.425
PHONESAT 2.4 11 Dec 22:04:04 22:04:37 10° 159° (SSE) 22:05:10 2401.200-2431.200
YUBILEINY 11 Dec 22:05:57 22:08:17 11° 315° (NW) 22:10:36 435.215
TIGRISAT 11 Dec 22:25:51 22:30:08 52° 100° (E) 22:34:18 435.000
AISAT 11 Dec 22:27:13 22:30:47 24° 64° (ENE) 22:34:23 437.250
ANTELSAT 11 Dec 22:29:02 22:33:21 60° 101° (E) 22:37:35 437.575/2403.000
50 SAT 11 Dec 22:31:12 22:33:23 16° 64° (ENE) 22:35:35 437.505
CUBEBUG 1 11 Dec 22:35:25 22:39:28 37° 68° (ENE) 22:43:33 437.445
JAS-2 11 Dec 22:35:28 22:38:58 18° 91° (E) 22:42:34 435.910
PRISM 11 Dec 22:40:13 22:43:43 26° 294° (WNW) 22:47:13 437.425
GONETS M04 11 Dec 22:45:25 22:51:12 20° 76° (ENE) 22:56:57
ESTCUBE 1 11 Dec 22:47:05 22:51:33 78° 74° (ENE) 22:56:04 437.505/2401.250
SPROUT 11 Dec 22:48:36 22:52:05 24° 65° (ENE) 22:55:34 437.525
NANOSAT C BR1 11 Dec 22:50:03 22:51:12 11° 88° (E) 22:52:20 145.865
UKube-1 11 Dec 22:50:27 22:53:15 17° 61° (ENE) 22:56:04 .
DX 1 11 Dec 22:55:21 22:58:52 24° 64° (ENE) 23:02:24 434.975-435.025
QB50P2 11 Dec 23:00:57 23:03:44 17° 91° (E) 23:06:29 145.880/145.840
POLYITAN 1 11 Dec 23:01:24 23:04:03 16° 91° (E) 23:06:39 437.675
VELOX 1 11 Dec 23:02:48 23:07:03 49° 71° (ENE) 23:11:22 145.980
HUMSAT D 11 Dec 23:04:24 23:05:57 12° 272° (W) 23:07:29 437.325/437.525
DUCHIFAT 1 11 Dec 23:07:35 23:10:12 16° 91° (E) 23:12:45 145.980
QB50P1 11 Dec 23:11:52 23:15:02 20° 93° (E) 23:18:12 145.935-145.965
POPSAT HIP 1 11 Dec 23:33:35 23:37:26 33° 96° (E) 23:41:14 437.405
UNISAT 6 11 Dec 23:34:55 23:38:44 30° 293° (WNW) 23:42:28 437.425
PHONESAT 2.4 11 Dec 23:37:07 23:39:10 20° 175° (S) 23:41:12 2401.200-2431.200
BUGSAT 1 11 Dec 23:38:30 23:40:26 13° 89° (E) 23:42:21 437.445
Cosmos 2499 11 Dec 23:38:50 23:47:03 48° 88° (E) 23:55:26 435.465 / 435.565
AO-85 11 Dec 23:46:24 23:49:28 17° 112° (ESE) 23:52:25 145.980
TISAT 1 11 Dec 23:47:51 23:50:49 19° 62° (ENE) 23:53:48 437.305
M-CUBED/EXP-1 PRIME 12 Dec 00:01:30 00:01:57 10° 47° (NE) 00:02:23 437.505
AISAT 12 Dec 00:02:53 00:07:03 40° 262° (W) 00:11:16 437.250
50 SAT 12 Dec 00:03:04 00:06:23 39° 261° (W) 00:09:43 437.505
TIGRISAT 12 Dec 00:03:28 00:06:26 18° 298° (WNW) 00:09:22 435.000
ANTELSAT 12 Dec 00:06:53 00:09:36 16° 299° (WNW) 00:12:17 437.575/2403.000
CUBEBUG 1 12 Dec 00:12:17 00:15:51 24° 266° (W) 00:19:28 437.445
O/OREOS (USA 219) 12 Dec 00:17:09 00:21:34 55° 61° (ENE) 00:25:58 437.305
JAS-2 12 Dec 00:19:22 00:24:33 67° 288° (WNW) 00:30:05 435.910
NANOSAT C BR1 12 Dec 00:23:14 00:27:29 78° 285° (WNW) 00:31:40 145.865
SPROUT 12 Dec 00:23:49 00:27:49 37° 263° (W) 00:31:52 437.525
UKube-1 12 Dec 00:24:37 00:28:52 58° 259° (W) 00:33:10 .
ESTCUBE 1 12 Dec 00:27:11 00:28:56 12° 272° (W) 00:30:42 437.505/2401.250
DX 1 12 Dec 00:30:47 00:34:52 38° 262° (W) 00:38:59 434.975-435.025
QB50P2 12 Dec 00:35:42 00:39:50 50° 289° (WNW) 00:43:54 145.880/145.840
POLYITAN 1 12 Dec 00:36:02 00:40:10 53° 288° (WNW) 00:44:15 437.675
GONETS M04 12 Dec 00:38:00 00:46:43 87° 96° (E) 00:55:28
VELOX 1 12 Dec 00:40:39 00:43:48 19° 268° (W) 00:46:59 145.980
DUCHIFAT 1 12 Dec 00:42:05 00:46:12 53° 288° (WNW) 00:50:16 145.980
QB50P1 12 Dec 00:47:00 00:51:00 41° 290° (WNW) 00:54:57 145.935-145.965
SO-50 12 Dec 00:50:39 00:52:36 12° 21° (NNE) 00:54:34 436.795
POPSAT HIP 1 12 Dec 01:09:34 01:13:06 26° 294° (WNW) 01:16:36 437.405
SWISSCUBE 12 Dec 01:11:23 01:15:37 33° 66° (ENE) 01:19:51 437.505
PHONESAT 2.4 12 Dec 01:12:00 01:13:48 16° 192° (SSW) 01:15:35 2401.200-2431.200
BUGSAT 1 12 Dec 01:12:06 01:16:15 64° 287° (WNW) 01:20:19 437.445
AUBIESAT-1 12 Dec 01:13:35 01:17:33 34° 61° (ENE) 01:21:42 437.475
BEESAT 12 Dec 01:14:44 01:18:56 32° 66° (ENE) 01:23:10 436.000
TISAT 1 12 Dec 01:21:59 01:26:06 50° 260° (W) 01:30:16 437.305
AO-85 12 Dec 01:24:39 01:29:29 74° 308° (NW) 01:33:57 145.980
MOZHAYETS 4 12 Dec 01:25:47 01:27:07 11° 56° (ENE) 01:28:26
Oscar 19 12 Dec 01:30:13 01:35:14 46° 99° (E) 01:40:13 437.125/150
M-CUBED/EXP-1 PRIME 12 Dec 01:31:08 01:35:25 60° 66° (ENE) 01:39:58 437.505
Cosmos 2499 12 Dec 01:31:56 01:40:15 46° 289° (WNW) 01:48:44 435.465 / 435.565
ITUPSAT 1 12 Dec 01:46:17 01:50:58 60° 72° (ENE) 01:55:41 437.325
O/OREOS (USA 219) 12 Dec 01:57:36 02:00:32 17° 260° (W) 02:03:27 437.305
JAS-2 12 Dec 02:07:34 02:08:46 11° 307° (NW) 02:09:59 435.910
ITAMSAT 1 12 Dec 02:14:34 02:17:22 14° 88° (E) 02:20:09 435.822/435.867
Gurwin Techsat 1B 12 Dec 02:18:58 02:24:17 65° 102° (ESE) 02:29:33 435.225
SO-50 12 Dec 02:29:59 02:34:19 41° 44° (NE) 02:38:34 436.795
AO-7 12 Dec 02:30:51 02:36:21 19° 88° (E) 02:41:49 29.400- 29.500
STARS 12 Dec 02:32:13 02:33:21 11° 56° (NE) 02:34:28 437.465
GONETS M04 12 Dec 02:38:07 02:44:47 24° 301° (WNW) 02:51:30
KKS-1 12 Dec 02:41:49 02:45:30 26° 64° (ENE) 02:49:12 437.445
AUBIESAT-1 12 Dec 02:48:07 02:51:57 30° 260° (W) 02:55:58 437.475
SWISSCUBE 12 Dec 02:49:08 02:53:23 32° 264° (W) 02:57:40 437.505
BEESAT 12 Dec 02:52:23 02:56:41 33° 264° (W) 03:01:00 436.000
MOZHAYETS 4 12 Dec 02:58:56 03:03:30 79° 75° (ENE) 03:08:05
M-CUBED/EXP-1 PRIME 12 Dec 03:07:24 03:10:17 17° 265° (W) 03:13:17 437.505
AO-85 12 Dec 03:07:39 03:10:36 16° 328° (NNW) 03:13:26 145.980
Oscar 19 12 Dec 03:09:59 03:14:19 28° 297° (WNW) 03:18:40 437.125/150
CUBESAT XI-V 12 Dec 03:20:43 03:24:17 23° 64° (ENE) 03:27:53 437.345
ITUPSAT 1 12 Dec 03:26:02 03:29:13 18° 269° (W) 03:32:24 437.325
BEESAT 3 12 Dec 03:30:36 03:34:15 40° 119° (ESE) 03:37:58 437.485
Cosmos 2499 12 Dec 03:33:31 03:36:10 11° 315° (NW) 03:38:50 435.465 / 435.565
ITAMSAT 1 12 Dec 03:52:16 03:57:29 81° 288° (WNW) 04:02:39 435.822/435.867
Gurwin Techsat 1B 12 Dec 03:59:51 04:03:45 21° 301° (WNW) 04:07:39 435.225
STARS 12 Dec 04:04:29 04:08:56 79° 73° (ENE) 04:13:24 437.465
YUBILEINY 12 Dec 04:09:58 04:17:08 27° 61° (ENE) 04:24:17 435.215
SO-50 12 Dec 04:10:43 04:14:40 30° 244° (WSW) 04:18:33 436.795
BEESAT 2 12 Dec 04:14:02 04:17:51 52° 122° (ESE) 04:21:45 435.950
BRITE-PL 12 Dec 04:16:18 04:19:59 18° 88° (E) 04:23:43 437.365/2234.400
KKS-1 12 Dec 04:17:43 04:21:53 38° 262° (W) 04:26:06 437.445
AO-7 12 Dec 04:21:55 04:30:22 82° 108° (ESE) 04:38:46 29.400- 29.500
MOZHAYETS 4 12 Dec 04:39:22 04:41:14 12° 272° (W) 04:43:07
Cosmos 2491 12 Dec 04:47:49 04:53:00 17° 74° (ENE) 04:58:09 435.465 / 435.565
STRAND 1 12 Dec 04:51:04 04:51:52 10° 52° (NE) 04:52:38 437.568
Cosmos 2504 12 Dec 04:55:30 05:02:27 25° 60° (ENE) 05:09:03 435.465 / 435.565
GOMX 1 12 Dec 04:56:01 04:59:38 18° 88° (E) 05:03:12 467.674
CUBESAT XI-V 12 Dec 04:57:00 05:01:24 45° 262° (W) 05:05:51 437.345
BEESAT 3 12 Dec 05:08:38 05:12:00 27° 319° (NW) 05:15:24 437.485
HORYU 2 12 Dec 05:19:25 05:23:29 35° 97° (E) 05:27:32 437.375
